This is the latest recevied weather packets stored in our database for station/object KN6ETB-1. If no packets are shown the sender has not sent any weather packets the latest 10 day(s).
| Time | Temp. | Humidity | Pressure | Rain* | Wind** | Luminosity | Snow |
|---|---|---|---|---|---|---|---|
| 1777915893 | 16.67° C | 66% | 1012.3 hPa | 0 mm | - | 207 W/m² | - |
| 1777915589 | 16.11° C | 67% | 1012.2 hPa | 0 mm | - | 209 W/m² | - |
| 1777915285 | 16.11° C | 69% | 1012.1 hPa | 0 mm | - | 220 W/m² | - |
| 1777914982 | 16.11° C | 70% | 1012.2 hPa | 0 mm | - | 242 W/m² | - |
| 1777914679 | 16.11° C | 71% | 1012.3 hPa | 0 mm | - | 231 W/m² | - |
| 1777914375 | 15.56° C | 73% | 1012.3 hPa | 0 mm | - | 222 W/m² | - |
| 1777914073 | 15.56° C | 72% | 1012.1 hPa | 0 mm | - | 156 W/m² | - |
| 1777913769 | 15.56° C | 73% | 1012 hPa | 0 mm | - | 119 W/m² | - |
| 1777913465 | 15° C | 74% | 1012 hPa | 0 mm | - | 120 W/m² | - |
| 1777913162 | 15° C | 75% | 1012.1 hPa | 0 mm | - | 112 W/m² | - |
| 1777912858 | 15° C | 75% | 1011.9 hPa | 0 mm | - | 137 W/m² | - |
| 1777912554 | 15° C | 76% | 1012.1 hPa | 0 mm | - | 138 W/m² | - |
| 1777912251 | 15° C | 76% | 1012.1 hPa | 0 mm | - | 134 W/m² | - |
| 1777911947 | 15° C | 77% | 1012 hPa | 0 mm | - | 151 W/m² | - |
| 1777911644 | 15° C | 76% | 1011.8 hPa | 0 mm | - | 189 W/m² | - |
| 1777911340 | 14.44° C | 77% | 1011.8 hPa | 0 mm | - | 168 W/m² | - |
| 1777911038 | 14.44° C | 78% | 1011.8 hPa | 0 mm | - | 171 W/m² | - |
| 1777910735 | 13.89° C | 78% | 1011.6 hPa | 0 mm | - | 147 W/m² | - |
| 1777910431 | 13.89° C | 79% | 1011.6 hPa | 0 mm | - | 126 W/m² | - |
| 1777910128 | 13.89° C | 80% | 1011.6 hPa | 0 mm | - | 130 W/m² | - |
| 1777909826 | 13.33° C | 82% | 1011.3 hPa | 0 mm | - | 131 W/m² | - |
| 1777909522 | 13.33° C | 82% | 1011.7 hPa | 0 mm | - | 128 W/m² | - |
| 1777909219 | 13.33° C | 83% | 1011.4 hPa | 0 mm | - | 121 W/m² | - |
| 1777908917 | 13.33° C | 83% | 1011.2 hPa | 0 mm | - | 116 W/m² | - |
| 1777908616 | 12.78° C | 83% | 1011.5 hPa | 0 mm | - | 112 W/m² | - |
* Rain latest hour (hover to see other rain measurements)
** Current wind speed in m/s (hover to see current wind gust speed)